[[{"header":{"parameterUnit":"m.s-1","parameterCategory":1,"la1":30.2991,"la2":30.254,"lo1":-89.0895,"lo2":-89.0444,"dy":0.0017,"dx":0.0017,"nx":28,"ny":28,"refTime":"2024-10-02T21:00:00:Z","depth":0,"parameterNumber":2,"parameterNumberName":"U-component_of_WINDS"},"data":[0,0,0,0,0,0,0,0,0,0,0,0,0,0,0,0,0,0,0,0,0,0,0,0,0,0,0,0,0,0,0,0,0,0,0,0,0,0,0,0,0,0,0,0,0,0,0,0,0,0,0,0,0,0,0,0,0,0,-1.5424,-1.5424,0,-1.5423,-1.5423,-1.5423,-1.5374,-1.5373,-1.5372,-1.537,-1.537,-1.5371,-1.5372,0,0,0,0,0,0,0,0,0,0,0,0,0,-1.5384,-1.5385,-1.5424,-1.5424,-1.5424,-1.5423,-1.5423,-1.5423,-1.5374,-1.5373,-1.5371,-1.537,-1.537,-1.5371,-1.5373,0,0,0,0,0,0,0,0,0,0,0,0,0,-1.5394,-1.5385,-1.5424,-1.5399,-1.5397,-1.5423,-1.5423,-1.5423,-1.5375,-1.5373,-1.5371,-1.5369,-1.5369,-1.5371,-1.5373,-1.5422,0,0,-1.5378,-1.5379,0,0,0,0,0,0,0,0,-1.5393,-1.5395,-1.5403,-1.5401,-1.5399,-1.5397,-1.5409,-1.5423,-1.5375,-1.5383,-1.537,-1.5368,-1.5381,-1.5381,-1.5385,-1.5422,-1.5422,-1.5378,-1.5379,-1.538,-1.5381,0,0,0,0,0,0,0,-1.5393,-1.5395,-1.5423,-1.5403,-1.5401,-1.5389,-1.5388,-1.5411,-1.5393,-1.5382,-1.5379,-1.5379,-1.5379,-1.5384,-1.5385,-1.5422,-1.5378,-1.538,-1.5381,-1.5382,-1.5499,-1.5501,0,0,0,0,0,0,-1.5395,-1.5395,-1.5423,-1.5423,-1.5391,-1.5391,-1.539,-1.5399,-1.5392,-1.5389,-1.5381,-1.5377,-1.5382,-1.5383,-1.5385,-1.5443,-1.538,-1.5382,-1.5383,-1.5497,-1.55,-1.5502,0,0,0,0,0,0,-1.5395,-1.5398,-1.5423,-1.5408,-1.541,-1.5394,-1.5404,-1.54,-1.5405,-1.5391,-1.5388,-1.5389,-1.538,-1.5382,-1.5413,-1.5442,-1.5383,-1.5384,-1.5495,-1.5498,-1.5501,-1.5559,0,0,0,0,0,0,-1.5394,-1.5398,-1.5417,-1.5409,-1.5411,-1.5452,-1.5406,-1.5402,-1.5408,-1.5403,-1.5398,-1.5395,-1.5379,-1.5411,-1.5415,-1.5443,-1.5386,-1.5492,-1.5496,-1.55,-1.5554,-1.5563,-1.5571,0,0,0,0,0,-1.5392,-1.5433,-1.5418,-1.5422,-1.5434,-1.5454,-1.5455,-1.5435,-1.541,-1.5429,-1.542,-1.5395,-1.5438,-1.5414,-1.5419,-1.5448,-1.549,-1.5495,-1.55,-1.555,-1.5562,-1.5571,0,0,0,0,0,0,-1.5445,-1.5432,-1.5415,-1.5454,-1.5455,-1.5445,-1.5468,-1.5448,-1.5456,-1.5451,-1.5426,-1.5425,-1.546,-1.5457,-1.5431,-1.5496,-1.546,-1.5465,-1.5497,-1.5507,-1.5516,-1.5517,-1.5387,0,0,0,0,0,-1.5461,-1.5478,-1.5465,-1.5501,-1.5503,-1.5485,-1.5493,-1.5478,-1.5478,-1.5478,-1.5472,-1.5473,-1.5487,-1.5497,-1.5508,-1.5553,-1.5552,-1.5575,-1.5584,-1.5591,-1.5597,-1.5621,-1.5632,-1.5517,-1.5517,-1.5517,0,0,-1.5495,-1.5489,-1.5502,-1.5512,-1.5511,-1.5529,-1.5486,-1.5507,-1.5521,-1.5482,-1.5511,-1.5506,-1.5506,-1.5544,-1.5561,-1.5542,-1.5628,-1.5597,-1.5602,-1.5604,-1.5627,-1.5638,-1.5647,-1.552,-1.552,-1.5519,0,0,-1.5566,-1.5563,-1.5593,-1.5593,-1.5592,-1.5581,-1.5588,-1.5581,-1.5576,-1.5605,-1.5576,-1.5592,-1.5615,-1.5617,-1.5621,-1.5692,-1.567,-1.5697,-1.5742,-1.5766,-1.5775,-1.5783,-1.581,-1.582,-1.5702,-1.5702,-1.5702,0,-1.5608,-1.5635,-1.5611,-1.5635,-1.564,-1.5605,-1.5636,-1.5637,-1.564,-1.5645,-1.5624,-1.5653,-1.5651,-1.569,-1.5707,-1.5711,-1.5719,-1.5698,-1.5776,-1.5783,-1.579,-1.5816,-1.5826,-1.5706,-1.5705,-1.5705,-1.5705,0,-1.5687,-1.5706,-1.573,-1.5734,-1.5742,-1.5769,-1.575,-1.5761,-1.5745,-1.5735,-1.5765,-1.5761,-1.5771,-1.5779,-1.5763,-1.5816,-1.5804,-1.578,-1.5744,-1.5805,-1.5829,-1.5838,-1.571,-1.5709,-1.5708,-1.5707,0,0,-1.5793,-1.5783,-1.5793,-1.5795,-1.5791,-1.5805,-1.583,-1.5841,-1.5851,-1.5854,-1.5876,-1.5896,-1.5874,-1.5878,-1.5862,-1.5883,-1.5941,-1.5856,-1.5855,-1.5873,-1.6,-1.602,-1.6032,-1.5926,-1.5927,-1.5929,-1.6001,0,-1.5863,-1.5906,-1.5886,-1.5931,-1.5949,-1.5915,-1.5937,-1.5937,-1.5929,-1.5943,-1.5933,-1.5949,-1.5917,-1.592,-1.5939,-1.593,-1.5967,-1.5924,-1.5946,-1.5948,-1.595,-1.6044,-1.6065,-1.6133,-1.601,-1.6011,-1.6012,0,-1.5951,-1.5958,-1.6005,-1.5999,-1.6006,-1.6026,-1.6034,-1.6047,-1.6047,-1.6039,-1.6044,-1.6023,-1.6048,-1.601,-1.6045,-1.6016,-1.6024,-1.6021,-1.6023,-1.6026,-1.5985,-1.6051,-1.6154,-1.6165,-1.6026,-1.6025,-1.6024,0,-1.6026,-1.6047,-1.6078,-1.608,-1.6073,-1.6088,-1.6086,-1.6084,-1.6091,-1.6098,-1.6103,-1.6112,-1.6118,-1.6126,-1.6108,-1.6083,-1.6145,-1.6106,-1.6141,-1.6142,-1.6157,-1.6157,-1.6265,-1.6159,-1.6159,-1.6159,-1.6159,0,-1.6107,-1.6138,-1.6111,-1.6131,-1.6165,-1.614,-1.6174,-1.6168,-1.6166,-1.6185,-1.6155,-1.6173,-1.6147,-1.6162,-1.6148,-1.6179,-1.6182,-1.6177,-1.6173,-1.6181,-1.6182,-1.6187,-1.6182,-1.6161,-1.6161,-1.616,-1.616,0,-1.6197,-1.618,-1.6213,-1.6203,-1.6201,-1.6227,-1.6219,-1.6236,-1.6225,-1.6249,-1.6253,-1.6236,-1.6252,-1.6234,-1.6249,-1.624,-1.6283,-1.6271,-1.6283,-1.628,-1.6317,-1.6314,-1.6434,-1.6449,-1.6331,-1.6332,-1.6333,0,-1.6252,-1.6274,-1.6267,-1.6277,-1.6277,-1.6293,-1.6301,-1.6277,-1.6287,-1.6288,-1.6306,-1.6319,-1.633,-1.6357,-1.6346,-1.6358,-1.6347,-1.6388,-1.6349,-1.6356,-1.635,-1.635,-1.6353,-1.6397,-1.6398,-1.64,-1.6401,0,-1.635,-1.6341,-1.6353,-1.6362,-1.6372,-1.6379,-1.6382,-1.6392,-1.6368,-1.638,-1.6396,-1.6404,-1.6419,-1.6434,-1.6442,-1.6439,-1.6417,-1.6413,-1.6422,-1.6431,-1.6438,-1.6436,-1.6307,-1.6411,-1.641,-1.6409,-1.6408,-1.6408,-1.6425,-1.6445,-1.6443,-1.6457,-1.6458,-1.6462,-1.6479,-1.647,-1.6483,-1.6494,-1.6479,-1.6499,-1.6498,-1.6507,-1.6507,-1.6523,-1.6506,-1.6518,-1.6522,-1.6526,-1.6532,-1.6433,-1.6524,-1.6524,-1.6524,-1.6523,-1.6523,0,-1.6524,-1.6521,-1.6535,-1.6541,-1.6553,-1.6529,-1.6532,-1.6544,-1.6562,-1.6563,-1.6573,-1.6593,-1.6606,-1.6596,-1.6608,-1.6623,-1.6613,-1.6627,-1.6627,-1.6627,-1.6546,-1.6538,-1.6635,-1.6635,-1.6635,-1.6635,-1.6635,-1.6635,-1.6577,-1.6609,-1.6599,-1.6631,-1.6627,-1.6647,-1.6651,-1.6655,-1.6656,-1.6679,-1.669,-1.6683,-1.668,-1.6691,-1.6703,-1.6699,-1.6706,-1.6724,-1.6718,-1.6643,-1.6632,-1.6622,-1.6614,-1.6725,-1.6725,-1.6797,-1.6798,-1.6798]},{"header":{"parameterUnit":"m.s-1","parameterCategory":1,"la1":30.2991,"la2":30.254,"lo1":-89.0895,"lo2":-89.0444,"dy":0.0017,"dx":0.0017,"nx":28,"ny":28,"refTime":"2024-10-02T21:00:00:Z","depth":0,"parameterNumber":3,"parameterNumberName":"V-component_of_WINDS"},"data":[0,0,0,0,0,0,0,0,0,0,0,0,0,0,0,0,0,0,0,0,0,0,0,0,0,0,0,0,0,0,0,0,0,0,0,0,0,0,0,0,0,0,0,0,0,0,0,0,0,0,0,0,0,0,0,0,0,0,-3.4947,-3.4947,0,-3.4927,-3.4927,-3.4927,-3.4872,-3.4871,-3.487,-3.4868,-3.485,-3.485,-3.4851,0,0,0,0,0,0,0,0,0,0,0,0,0,-3.4938,-3.4938,-3.4947,-3.4946,-3.4946,-3.4927,-3.4927,-3.4927,-3.4872,-3.4871,-3.4869,-3.4868,-3.485,-3.485,-3.4851,0,0,0,0,0,0,0,0,0,0,0,0,0,-3.4933,-3.4939,-3.4947,-3.4917,-3.4914,-3.4927,-3.4927,-3.4927,-3.4873,-3.4871,-3.4869,-3.4867,-3.4849,-3.485,-3.4851,-3.4893,0,0,-3.4854,-3.4854,0,0,0,0,0,0,0,0,-3.4933,-3.4933,-3.4921,-3.4919,-3.4916,-3.49,-3.4917,-3.4915,-3.4873,-3.4888,-3.4868,-3.4866,-3.4868,-3.4867,-3.4868,-3.4892,-3.4891,-3.4854,-3.4855,-3.4855,-3.4855,0,0,0,0,0,0,0,-3.4933,-3.4933,-3.4939,-3.4921,-3.4918,-3.4905,-3.4902,-3.4916,-3.4888,-3.4887,-3.4883,-3.4881,-3.4866,-3.4867,-3.4867,-3.4891,-3.4854,-3.4855,-3.4855,-3.4856,-3.4949,-3.4951,0,0,0,0,0,0,-3.4938,-3.4934,-3.494,-3.4938,-3.492,-3.4906,-3.4903,-3.4907,-3.4888,-3.4884,-3.4883,-3.4879,-3.4866,-3.4866,-3.4866,-3.4914,-3.4855,-3.4856,-3.4856,-3.4947,-3.4949,-3.4951,0,0,0,0,0,0,-3.4938,-3.4939,-3.494,-3.4935,-3.4934,-3.4908,-3.4913,-3.4908,-3.4908,-3.4885,-3.488,-3.4889,-3.4865,-3.4865,-3.4887,-3.4913,-3.4856,-3.4857,-3.4945,-3.4948,-3.495,-3.501,0,0,0,0,0,0,-3.4938,-3.4939,-3.4954,-3.4936,-3.4935,-3.4961,-3.4915,-3.4908,-3.491,-3.4904,-3.4889,-3.4885,-3.4863,-3.4885,-3.4887,-3.4913,-3.4858,-3.4942,-3.4946,-3.4949,-3.5006,-3.5015,-3.5023,0,0,0,0,0,-3.4938,-3.4972,-3.4955,-3.4956,-3.4953,-3.4963,-3.4962,-3.4936,-3.4912,-3.4927,-3.4913,-3.4885,-3.4909,-3.4888,-3.489,-3.4916,-3.4941,-3.4945,-3.4949,-3.5002,-3.5013,-3.5022,0,0,0,0,0,0,-3.4994,-3.4969,-3.495,-3.4979,-3.4974,-3.4953,-3.4972,-3.4949,-3.495,-3.4945,-3.4913,-3.491,-3.4937,-3.4928,-3.4905,-3.4956,-3.492,-3.4925,-3.496,-3.497,-3.4979,-3.498,-3.4858,0,0,0,0,0,-3.501,-3.5019,-3.4997,-3.5025,-3.5023,-3.4998,-3.5001,-3.4982,-3.4975,-3.4972,-3.4959,-3.4953,-3.496,-3.4964,-3.4969,-3.5004,-3.5001,-3.5023,-3.5032,-3.5038,-3.5043,-3.5062,-3.5072,-3.4966,-3.4966,-3.4966,0,0,-3.5043,-3.503,-3.5038,-3.5036,-3.5029,-3.504,-3.4996,-3.501,-3.5018,-3.4974,-3.4994,-3.4985,-3.4976,-3.5005,-3.5018,-3.4999,-3.5072,-3.5044,-3.505,-3.5051,-3.5068,-3.5078,-3.5087,-3.4969,-3.4968,-3.4968,0,0,-3.5108,-3.5099,-3.5122,-3.5116,-3.5107,-3.509,-3.5096,-3.5079,-3.5071,-3.5091,-3.5058,-3.5068,-3.5079,-3.5075,-3.5074,-3.5139,-3.5115,-3.5141,-3.5185,-3.5204,-3.5213,-3.522,-3.5244,-3.5253,-3.5146,-3.5146,-3.5146,0,-3.515,-3.5165,-3.5137,-3.5153,-3.5153,-3.5114,-3.5137,-3.5133,-3.5126,-3.5127,-3.5107,-3.5121,-3.5112,-3.514,-3.5156,-3.5157,-3.5163,-3.5143,-3.5214,-3.5221,-3.5227,-3.525,-3.5259,-3.515,-3.5149,-3.5149,-3.5149,0,-3.5218,-3.5229,-3.5249,-3.5243,-3.5245,-3.5265,-3.524,-3.5246,-3.5227,-3.5213,-3.5234,-3.5222,-3.5224,-3.5229,-3.521,-3.5255,-3.5244,-3.5219,-3.5183,-3.5241,-3.5262,-3.5271,-3.5155,-3.5153,-3.5152,-3.5152,0,0,-3.5319,-3.5297,-3.5305,-3.5302,-3.5289,-3.5297,-3.5315,-3.5317,-3.5323,-3.5319,-3.5334,-3.5345,-3.5322,-3.5322,-3.5302,-3.5319,-3.5372,-3.5292,-3.5291,-3.5308,-3.5422,-3.5442,-3.5452,-3.5356,-3.5357,-3.5358,-3.5423,0,-3.5381,-3.5411,-3.5386,-3.542,-3.5431,-3.5394,-3.541,-3.5404,-3.5392,-3.5399,-3.5385,-3.5394,-3.5362,-3.5362,-3.5377,-3.5363,-3.5395,-3.5358,-3.537,-3.5371,-3.5374,-3.5463,-3.5483,-3.5545,-3.5431,-3.5432,-3.5433,0,-3.5458,-3.5458,-3.5494,-3.5479,-3.5483,-3.5497,-3.5498,-3.5505,-3.5498,-3.5487,-3.5487,-3.5463,-3.5481,-3.5446,-3.547,-3.5445,-3.5449,-3.5443,-3.5444,-3.5445,-3.5406,-3.5467,-3.5563,-3.5573,-3.5446,-3.5445,-3.5444,0,-3.5529,-3.5538,-3.5561,-3.5559,-3.5543,-3.5554,-3.5548,-3.5539,-3.5542,-3.5542,-3.5544,-3.5546,-3.5548,-3.555,-3.5528,-3.5504,-3.5556,-3.5518,-3.5548,-3.5549,-3.5561,-3.5561,-3.5661,-3.5563,-3.5562,-3.5562,-3.5562,0,-3.5602,-3.5626,-3.5592,-3.5607,-3.5632,-3.5603,-3.563,-3.5619,-3.5612,-3.5624,-3.5592,-3.5604,-3.5574,-3.5583,-3.5565,-3.5589,-3.5589,-3.5582,-3.5577,-3.5585,-3.5587,-3.5588,-3.5583,-3.5565,-3.5564,-3.5564,-3.5563,0,-3.5686,-3.5664,-3.5687,-3.5669,-3.5666,-3.5685,-3.567,-3.5683,-3.5669,-3.5684,-3.5686,-3.5664,-3.5673,-3.5651,-3.5656,-3.5645,-3.5678,-3.5666,-3.5681,-3.5678,-3.571,-3.5707,-3.5815,-3.5828,-3.572,-3.5721,-3.5722,0,-3.5734,-3.5751,-3.5736,-3.5742,-3.5737,-3.5746,-3.5749,-3.5722,-3.5727,-3.5721,-3.5734,-3.5741,-3.5744,-3.5761,-3.5745,-3.575,-3.5738,-3.5775,-3.5739,-3.5747,-3.574,-3.5739,-3.5741,-3.5783,-3.5785,-3.5786,-3.5786,0,-3.5823,-3.5811,-3.5817,-3.5819,-3.5823,-3.5824,-3.5822,-3.5829,-3.58,-3.5806,-3.5815,-3.5818,-3.5824,-3.5832,-3.5833,-3.5826,-3.5802,-3.5798,-3.5806,-3.5814,-3.5822,-3.582,-3.5703,-3.5796,-3.5795,-3.5794,-3.5794,-3.5793,-3.5891,-3.5905,-3.5896,-3.5904,-3.5899,-3.5899,-3.591,-3.5897,-3.5904,-3.5907,-3.589,-3.5903,-3.5896,-3.5895,-3.5892,-3.5902,-3.5885,-3.5895,-3.5898,-3.5902,-3.5907,-3.582,-3.5902,-3.5902,-3.5901,-3.5901,-3.5901,0,-3.5978,-3.5971,-3.5978,-3.5977,-3.5983,-3.5959,-3.5956,-3.5963,-3.5975,-3.597,-3.5975,-3.5985,-3.5992,-3.5978,-3.5982,-3.5993,-3.5982,-3.5996,-3.5995,-3.5994,-3.5922,-3.5915,-3.6004,-3.6004,-3.6004,-3.6004,-3.6004,-3.6004,-3.6025,-3.6048,-3.6036,-3.6056,-3.6049,-3.6061,-3.6062,-3.6061,-3.6057,-3.6071,-3.6077,-3.6067,-3.6058,-3.6063,-3.6068,-3.6064,-3.6067,-3.6085,-3.6077,-3.6009,-3.5999,-3.599,-3.5983,-3.6086,-3.6086,-3.6148,-3.6149,-3.6149]}]]